Regional Weather Roundup
Issued by NWS

Home | Current Version | Previous Version | Text Only | Print | Product List | Glossary On
Versions: 1 2 3 4 5 6 7 8 9 10 11 12 13 14 15 16 17 18 19 20 21 22 23 24 25 26 27 28 29 30 31 32 33 34 35 36 37 38 39 40 41 42 43 44 45 46 47 48 49 50
000
ASUS43 KDMX 221706
RWRIA

WEATHER ROUNDUP FOR IOWA
NATIONAL WEATHER SERVICE DES MOINES IA
1200 PM CDT SUN OCT 22 2017

NOTE: "FAIR" INDICATES FEW OR NO CLOUDS BELOW 12,000 FEET WITH NO
SIGNIFICANT WEATHER AND/OR OBSTRUCTIONS TO VISIBILITY.

* - THESE STATIONS ARE NOT NWS STATIONS...THUS NOT UNDER NWS
QUALITY CONTROL.  THEY ALSO DO NOT REPORT WEATHER SUCH
AS PRECIPITATION OR FOG.

IAZ001>003-012>014-020>022-031>034-043>046-221800-
   NORTHWEST IOWA

CITY           SKY/WX    TMP DP  RH WIND       PRES   REMARKS
CHEROKEE *     SUNNY     59  39  47 W5        30.08F
DENISON *      SUNNY     61  41  48 W9        30.11S
LE MARS *      SUNNY     61  32  33 VRB5G12   30.07F
ORANGE CITY *  SUNNY     61  37  41 W8        30.07S
SHELDON *      SUNNY     59  36  41 VRB6      30.06S
SIOUX CITY     SUNNY     60  41  49 S3        30.09F
SPENCER        SUNNY     60  34  37 W13       30.06F
STORM LAKE *   SUNNY     59  34  38 W10       30.07F
$$

IAZ055>058-069>071-079>083-090>094-221800-
   SOUTHWEST IOWA

CITY           SKY/WX    TMP DP  RH WIND       PRES   REMARKS
ATLANTIC *     SUNNY     61  39  44 W9G17     30.11R
AUDUBON *      SUNNY     61  39  44 W6        30.10S
CLARINDA *     CLOUDY    63  43  48 W10       30.15R
COUNCIL BLFS * SUNNY     61  41  48 SW6       30.12S
CRESTON *      MOSUNNY   57  43  58 NW10      30.12R
HARLAN  *      SUNNY     61  39  44 W12       30.14S
LAMONI         CLOUDY    58  45  62 NW8       30.10R
RED OAK *      SUNNY     63  39  42 VRB6G14   30.13R
SHENANDOAH *   SUNNY     63  37  39 W8        30.14R
$$

IAZ047>049-059>061-072>074-084-221800-
   CENTRAL IOWA

CITY           SKY/WX    TMP DP  RH WIND       PRES   REMARKS
AMES           CLOUDY    60  41  49 NW10      30.07S
ANKENY *       MOSUNNY   57  43  58 NW9       30.09S
BOONE *        CLOUDY    59  39  47 W13       30.07S
CHARITON *     PTSUNNY   55  46  71 NW10      30.08S
DES MOINES     PTSUNNY   58  43  57 NW8       30.08S
GRINNELL*      CLOUDY    51  47  84 NW8       30.08S
KNOXVILLE *    PTSUNNY   54  45  71 NW10      30.07R
MARSHALLTOWN   CLOUDY    53  47  79 NW10      30.06R
NEWTON *       CLOUDY    54  46  76 NW7       30.08R
PELLA *        PTSUNNY   53  47  80 NW8       30.09R
PERRY *          N/A     62  34  35 NW8       30.09R
$$

IAZ004>006-015-016-023>025-035-036-221800-
   NORTH CENTRAL IOWA

CITY           SKY/WX    TMP DP  RH WIND       PRES   REMARKS
ALGONA *       SUNNY     61  36  39 W13       30.06S
CLARION *      CLOUDY    57  43  58 NW13G18   30.06S
ESTHERVILLE    SUNNY     59  34  39 W12       30.04F
FORT DODGE *   SUNNY     60  41  49 W12       30.07F
MASON CITY     CLOUDY    56  41  57 W10       30.06S
FOREST CITY *    N/A     57  43  58 W7        30.05F
WEBSTER CITY * SUNNY     59  39  47 NW13      30.05S
IOWA FALLS *     N/A     57  44  63 W9        30.07S
$$

IAZ007>011-017>019-026>030-037>042-050>054-066-221800-
   NORTHEAST IOWA

CITY           SKY/WX    TMP DP  RH WIND       PRES   REMARKS
CEDAR RAPIDS   CLOUDY    53  48  83 N9        30.03R
CHARLES CITY * CLOUDY    52  45  76 NW6       30.05R
CLINTON *      LGT RAIN  53  49  86 NW12G18   30.04R
DECORAH *      CLOUDY    50  46  87 NW5       30.02S
DUBUQUE        CLOUDY    52  47  83 N10       30.01F
MONTICELLO *   CLOUDY    54  48  82 NW8       30.03R
OELWEIN *      CLOUDY    52  48  87 NW8       30.04S
WATERLOO       CLOUDY    51  45  79 NW6       30.04S
$$

IAZ064-065-067-068-078-221800-
   EAST CENTRAL IOWA

CITY           SKY/WX    TMP DP  RH WIND       PRES   REMARKS
DAVENPORT      LGT RAIN  51  47  86 N20G25    30.06R
IOWA CITY      CLOUDY    55  48  77 N8        30.06R
MUSCATINE *    CLOUDY    54  48  82 N8        30.03F
QUAD CITIES    CLOUDY    54  47  77 N15G22    30.04R
$$

IAZ062-063-075>077-085>089-095>099-221800-
   SOUTHEAST IOWA

CITY           SKY/WX    TMP DP  RH WIND       PRES   REMARKS
BURLINGTON     CLOUDY    53  50  89 N12G17    30.04R
FAIRFIELD *    CLOUDY    54  48  82 N8        30.04F
FORT MADISON * CLOUDY    54  50  87 N8        30.04F
KEOKUK *       CLOUDY    54  48  82 N6G12     30.03S
OSKALOOSA *    CLOUDY    52  48  86 NW9       30.07S
OTTUMWA        CLOUDY    53  49  86 NW8       30.06R
WASHINGTON *   LGT RAIN  54  50  87 NW6G13    30.05R
$$

ABBREVIATIONS USED IN REMARKS
   TC - TEMPERATURES IN CELSIUS
  WCI - WIND CHILL INDEX
   HX - HEAT INDEX
  VSB - VISIBILITY
$$





USA.gov is the U.S. government's official web portal to all federal, state and local government web resources and services.